Weather Roundup
Issued by NWS Springfield, MO

Home | Current Version | Previous Version | Text Only | Print | Product List | Glossary On
Versions: 1 2 3 4 5 6 7 8 9 10 11 12 13 14 15 16 17 18 19 20 21 22 23 24 25 26 27 28 29 30 31 32 33 34 35 36 37 38 39 40 41 42 43 44 45 46 47 48 49 50
000
NZUS99 KSGF 262207
HRRSGF

HOURLY WEATHER
NATIONAL WEATHER SERVICE SPRINGFIELD MO
400 PM CST SUN FEB 26 2017

......SGF CWA......

CITY           SKY/WX    TMP DP  RH WIND       PRES   REMARKS
SPRINGFIELD    CLOUDY    41  34  76 E8        29.97F
JOPLIN         CLOUDY    43  35  73 E10       29.96S
WEST PLAINS    CLOUDY    48  21  34 SE6       30.03F
ROLLA          LGT RAIN  40  35  83 S13       30.03F WCI  32
OSAGE BEACH    LGT RAIN  39  36  89 SE7       30.04F WCI  34
BRANSON        CLOUDY    48  25  40 E9        29.97F

......SURROUNDING SGF CWA......

CITY           SKY/WX    TMP DP  RH WIND       PRES   REMARKS
CHANUTE        MOSUNNY   51  26  37 S10       29.94S
PARSONS        MOSUNNY   50  29  44 SE9       29.95S
COFFEYVILLE    MOSUNNY   51  32  48 E7        29.94S
EMPORIA        SUNNY     52  25  35 W6        29.90S
GROVE OK       CLOUDY    50  34  53 E9        29.95F
ROGERS AR      CLOUDY    47  29  49 E8        29.95S
SILOAM SPRINGS CLOUDY    50  27  40 SE5       29.94S
HARRISON AR    CLOUDY    49  26  41 E7        29.96F
NEAR YELLVILLE CLOUDY    52  25  35 E8        29.97F

......KANSAS AND MISSOURI......

CITY           SKY/WX    TMP DP  RH WIND       PRES   REMARKS
KANSAS CTY INT PTSUNNY   50  24  36 S7        29.94S
DOWNTOWN KC    MOSUNNY   53  24  32 S8        29.94F
COLUMBIA       PTSUNNY   45  28  51 S15       30.02S
SEDALIA        CLOUDY    45  35  68 S12       30.01S
ST JOSEPH      MOSUNNY   53  24  32 SW12      29.93S
ST LOUIS       CLOUDY    49  19  30 SW15G25   30.08R
SPIRIT OF STL  CLOUDY    48  22  35 SW6       30.07R
KIRKSVILLE     PTSUNNY   48  25  40 SW13G21   29.96S
WICHITA        MOSUNNY   52  25  35 CALM      29.89S
TOPEKA         SUNNY     53  24  32 VRB3      29.92S
OLATHE         PTSUNNY   48  33  56 SE9       29.94S

......TENNESSEE......

CITY           SKY/WX    TMP DP  RH WIND       PRES   REMARKS
MEMPHIS        PTSUNNY   60  21  22 S10       30.06F
NASHVILLE      PTSUNNY   54  16  22 S8        30.15S

......ARKANSAS.......

CITY           SKY/WX    TMP DP  RH WIND       PRES   REMARKS
FAYETTEVILLE   CLOUDY    50  27  40 S7        29.95R
FT SMITH       CLOUDY    54  27  35 CALM      29.95R
LITTLE ROCK    LGT RAIN  56  33  42 SE12      30.01F

......OKLAHOMA.......

CITY           SKY/WX    TMP DP  RH WIND       PRES   REMARKS
TULSA          CLOUDY    59  33  37 VRB7      29.87S
PONCA CITY     SUNNY     55  28  35 CALM      29.88F
MCALESTER      CLOUDY    57  35  43 S8G17     29.91F
OKLAHOMA CITY  PTSUNNY   58  33  39 VRB3      29.85F

......IOWA............

CITY           SKY/WX    TMP DP  RH WIND       PRES   REMARKS
DES MOINES     MOSUNNY   47  20  34 W10       29.93R
QUAD CITIES    CLOUDY    47  28  47 W9        29.93R

......ILLINOIS........

CITY           SKY/WX    TMP DP  RH WIND       PRES   REMARKS
QUINCY         PTSUNNY   49  25  39 S16       30.00S
CHICAGO        MOSUNNY   49  21  33 W17G31    29.93R



USA.gov is the U.S. government's official web portal to all federal, state and local government web resources and services.